Hobart, OK

9:18 PM CDT on June 26, 2017 (GMT -0500)
Hobart Municipal

Weather History for KHBR - January, 2014

Change the Weather History Date:

Wednesday, January 22, 2014

  Actual Average Record
Temperature  
Mean Temperature 34 °F -  
Max Temperature 48 °F 48 °F 73 °F (2002)
Min Temperature 19 °F 26 °F 16 °F (2008)
Degree Days  
Heating Degree Days 32    
Moisture  
Dew Point 20 °F    
Average Humidity 55    
Maximum Humidity 81    
Minimum Humidity 35    
Precipitation  
Precipitation 0.00 in - - ()
Sea Level Pressure  
Sea Level Pressure 30.16 in    
Wind  
Wind Speed 11 mph (ENE)    
Max Wind Speed 25 mph    
Max Gust Speed 33 mph    
Visibility 10 miles    
Events      
Averages and records for this station are not official NWS values.
T = Trace of Precipitation, MM = Missing Value Source: NWS Daily Summary

Daily Weather History Graph

Daily Weather History Graph

Search for Another Location

Airport or City:

Trip Planner

Search our weather history database for the weather conditions in past years. The results will help you decide how hot, cold, wet, or windy it might be!

Date:

Astronomy

Jan. 22, 2014 Rise Set
Actual Time 7:41 AM CST 5:54 PM CST
Civil Twilight 7:13 AM CST 6:22 PM CST
Nautical Twilight 6:43 AM CST 6:52 PM CST
Astronomical Twilight 6:13 AM CST 7:22 PM CST
Moon No Moon Rise 10:58 AM CST (1/22)
Length of Visible Light 11h 08m
Length of Day
10h 13m
Waning Gibbous, 65% of the Moon is Illuminated
Jan 22
Waning Gibbous
Jan 23
Last Quarter
Jan 30
New
Feb 6
First Quarter
Feb 14
Full

Hourly Weather History & Observations

Time (CST) Temp. Windchill Dew Point Humidity Pressure Visibility Wind Dir Wind Speed Gust Speed Precip Events Conditions
12:53 AM 27.0 °F 23.0 °F 16.0 °F 63% 30.13 in 10.0 mi East 3.5 mph - N/A   Clear
1:53 AM 23.0 °F 17.0 °F 15.1 °F 72% 30.12 in 10.0 mi WNW 4.6 mph - N/A   Clear
2:53 AM 25.0 °F - 16.0 °F 69% 30.12 in 10.0 mi Calm Calm - N/A   Clear
3:53 AM 23.0 °F 18.4 °F 15.1 °F 72% 30.10 in 10.0 mi ENE 3.5 mph - N/A   Clear
4:53 AM 21.0 °F 14.6 °F 14.0 °F 74% 30.10 in 10.0 mi East 4.6 mph - N/A   Clear
5:53 AM 21.0 °F 14.6 °F 15.1 °F 78% 30.14 in 10.0 mi NE 4.6 mph - N/A   Clear
6:53 AM 19.0 °F 8.2 °F 14.0 °F 81% 30.17 in 10.0 mi NNE 9.2 mph - N/A   Clear
7:53 AM 24.1 °F 12.5 °F 18.0 °F 77% 30.17 in 10.0 mi ENE 12.7 mph - N/A   Clear
8:53 AM 30.9 °F 19.4 °F 19.9 °F 64% 30.18 in 10.0 mi NE 17.3 mph - N/A   Clear
9:53 AM 37.0 °F 26.2 °F 19.0 °F 48% 30.19 in 10.0 mi ENE 21.9 mph - N/A   Clear
10:53 AM 42.1 °F 32.1 °F 21.9 °F 45% 30.20 in 10.0 mi ENE 25.3 mph - N/A   Clear
11:53 AM 46.0 °F 37.6 °F 24.1 °F 42% 30.19 in 10.0 mi ENE 24.2 mph 31.1 mph N/A   Clear
12:53 PM 48.0 °F - 25.0 °F 41% 30.14 in 10.0 mi ENE 23.0 mph 33.4 mph N/A   Clear
1:53 PM 48.9 °F - 21.9 °F 35% 30.12 in 10.0 mi ENE 18.4 mph - N/A   Clear
2:53 PM 48.9 °F - 23.0 °F 36% 30.11 in 10.0 mi ENE 17.3 mph - N/A   Clear
3:53 PM 48.0 °F - 23.0 °F 37% 30.11 in 10.0 mi ENE 20.7 mph - N/A   Clear
4:53 PM 46.0 °F 38.5 °F 23.0 °F 40% 30.12 in 10.0 mi ENE 19.6 mph - N/A   Clear
5:53 PM 43.0 °F 34.8 °F 23.0 °F 45% 30.14 in 10.0 mi ENE 18.4 mph - N/A   Clear
6:53 PM 41.0 °F 32.5 °F 23.0 °F 49% 30.18 in 10.0 mi ENE 17.3 mph - N/A   Clear
7:53 PM 41.0 °F 31.9 °F 23.0 °F 49% 30.19 in 10.0 mi ENE 19.6 mph - N/A   Clear
8:53 PM 39.9 °F 30.0 °F 21.9 °F 49% 30.20 in 10.0 mi ENE 21.9 mph 31.1 mph N/A   Clear
9:53 PM 37.9 °F 27.9 °F 21.0 °F 51% 30.25 in 10.0 mi ENE 19.6 mph - N/A   Clear
10:53 PM 36.0 °F 25.3 °F 19.9 °F 52% 30.28 in 10.0 mi ENE 19.6 mph - N/A   Clear
11:53 PM 36.0 °F 26.0 °F 19.0 °F 50% 30.30 in 10.0 mi NE 17.3 mph - N/A   Clear